User: anonymous   Login
Location: Unspecified
(0.0000°N, 0.0000°E)
Time: 21:42:10
(UTC+00:00)
Language:

USA 200 - Orbit

View from above orbital plane
View from above orbital plane
View from above satellite
View from above satellite

Ground track
Ground track

The orbit data is extracted from the following two-line orbital elements,

1 32706U 08010A   18133.79860484 0.00000000  00000-0  00000-0 0    02
2 32706  63.3942 302.7376 7074324 271.7892  15.7077  2.00619000    03
Epoch (UTC): 13 May 2018 19:09:59
Eccentricity: 0.7074324
inclination: 63.3942°
perigee height: 1391 km
apogee height: 38963 km
right ascension of ascending node: 302.7376°
argument of perigee: 271.7892°
revolutions per day: 2.00619000
mean anomaly at epoch: 15.7077°
orbit number at epoch: 0

The dashed part of the orbit path shows where the satellite is in the earth's shadow,  

DLR